Change the Weather History Date:

Monday, October 13, 2014

  Actual Average (KPAH) Record (KPAH)
Temperature  
Mean Temperature 71 °F 60 °F  
Max Temperature 79 °F 72 °F 89 °F (1989)
Min Temperature 63 °F 47 °F 27 °F (1988)
Degree Days  
Heating Degree Days 0 7  
Month to date heating degree days 69  
Since 1 July heating degree days 108  
Cooling Degree Days 6 1  
Month to date cooling degree days 24  
Year to date cooling degree days 1524  
Growing Degree Days 21 (Base 50)    
Moisture  
Dew Point 67 °F    
Average Humidity 92    
Maximum Humidity 100    
Minimum Humidity 65    
Precipitation  
Precipitation 0.76 in 0.13 in 2.17 in (1959)
Month to date precipitation 1.70  
Year to date precipitation 37.93  
Snow  
Snow 0.00 in 0.00 in 0.00 in (2002)
Month to date snowfall 0.0  
Since 1 July snowfall 0.0  
Since 1 September snowfall 0.0  
Snow Depth -    
Sea Level Pressure  
Sea Level Pressure 29.75 in    
Wind  
Wind Speed 7 mph (SSE)    
Max Wind Speed 21 mph    
Max Gust Speed 30 mph    
Visibility 9 miles    
Events Rain , Thunderstorm    
T = Trace of Precipitation, MM = Missing Value Source: NWS Daily Summary

Daily Weather History Graph

Daily Weather History Graph

Search for Another Location

Airport or City:

Trip Planner

Search our weather history database for the weather conditions in past years. The results will help you decide how hot, cold, wet, or windy it might be!

Date:

Astronomy

Oct. 13, 2014 Rise Set
Actual Time 7:01 AM CDT 6:20 PM CDT
Civil Twilight 6:34 AM CDT 6:46 PM CDT
Nautical Twilight 6:04 AM CDT 7:17 PM CDT
Astronomical Twilight 5:34 AM CDT 7:47 PM CDT
Moon 10:35 PM CDT (10/13) 12:10 PM CDT (10/13)
Length of Visible Light 12h 12m
Length of Day
11h 19m
Waning Gibbous, 70% of the Moon is Illuminated
Oct 13
Waning Gibbous
Oct 15
Last Quarter
Oct 23
New
Oct 30
First Quarter
Nov 6
Full

Hourly Weather History & Observations

Time (CDT) Temp. Dew Point Humidity Pressure Visibility Wind Dir Wind Speed Gust Speed Precip Events Conditions
12:15 AM 69.8 °F 69.8 °F 100% 29.89 in 10.0 mi South 6.9 mph - N/A   Mostly Cloudy
12:35 AM 69.8 °F 69.8 °F 100% 29.87 in 10.0 mi SSE 6.9 mph - N/A Rain , Thunderstorm Light Thunderstorms and Rain
12:55 AM 68.9 °F 66.6 °F 92% 29.87 in 10.0 mi South 6.9 mph - N/A   Scattered Clouds
1:15 AM 68.4 °F 68.2 °F 99% 29.87 in 10.0 mi SSE 3.5 mph - N/A Thunderstorm Mostly Cloudy
1:35 AM 68.5 °F 68.5 °F 100% 29.87 in 7.0 mi Calm Calm - N/A Thunderstorm Overcast
1:55 AM 68.4 °F 68.4 °F 100% 29.86 in 5.0 mi Calm Calm - 0.01 in Rain , Thunderstorm Thunderstorms and Rain
2:15 AM 68.9 °F 68.9 °F 100% 29.87 in 7.0 mi SE 3.5 mph - N/A Thunderstorm Thunderstorm
2:35 AM 68.9 °F 68.9 °F 100% 29.86 in 7.0 mi SSE 5.8 mph - N/A Rain Light Rain
2:55 AM 68.9 °F 68.9 °F 100% 29.86 in 10.0 mi SSE 5.8 mph - N/A   Overcast
3:15 AM 68.5 °F 68.5 °F 100% 29.86 in 10.0 mi Calm Calm - N/A   Overcast
3:35 AM 68.4 °F 68.4 °F 100% 29.86 in 10.0 mi Calm Calm - N/A   Overcast
3:55 AM 68.4 °F 68.4 °F 100% 29.86 in 10.0 mi SSE 4.6 mph - N/A   Overcast
4:15 AM 68.2 °F 68.2 °F 100% 29.86 in 10.0 mi SSE 3.5 mph - N/A   Overcast
4:35 AM 68.0 °F 68.0 °F 100% 29.86 in 10.0 mi SE 4.6 mph - N/A   Overcast
4:55 AM 67.8 °F 67.8 °F 100% 29.86 in 10.0 mi SE 3.5 mph - N/A   Mostly Cloudy
5:15 AM 67.5 °F 67.5 °F 100% 29.86 in 10.0 mi ESE 4.6 mph - N/A   Mostly Cloudy
5:35 AM 68.0 °F 67.5 °F 98% 29.86 in 10.0 mi SSE 8.1 mph - N/A   Mostly Cloudy
5:55 AM 67.6 °F 67.3 °F 99% 29.86 in 10.0 mi SE 6.9 mph - N/A   Scattered Clouds
6:15 AM 67.3 °F 67.3 °F 100% 29.86 in 10.0 mi SSE 5.8 mph - N/A   Mostly Cloudy
6:35 AM 67.1 °F 67.1 °F 100% 29.85 in 10.0 mi SE 6.9 mph - 0.01 in   Overcast
6:55 AM 67.1 °F 67.1 °F 100% 29.85 in 10.0 mi ESE 4.6 mph - 0.01 in Rain Light Rain
7:15 AM 67.1 °F 67.1 °F 100% 29.85 in 10.0 mi SE 4.6 mph - N/A   Overcast
7:35 AM 67.1 °F 67.1 °F 100% 29.85 in 10.0 mi SE 4.6 mph - N/A   Overcast
7:55 AM 67.5 °F 66.7 °F 98% 29.85 in 10.0 mi SSE 6.9 mph - N/A   Overcast
8:15 AM 68.0 °F 66.6 °F 95% 29.85 in 10.0 mi SE 6.9 mph - N/A   Overcast
8:35 AM 69.4 °F 66.7 °F 91% 29.84 in 10.0 mi SE 9.2 mph - N/A   Mostly Cloudy
8:55 AM 69.8 °F 66.6 °F 89% 29.83 in 10.0 mi SSE 8.1 mph - N/A   Scattered Clouds
9:15 AM 70.2 °F 66.7 °F 89% 29.82 in 10.0 mi SE 9.2 mph - N/A   Overcast
9:55 AM 71.8 °F 67.3 °F 86% 29.81 in 10.0 mi SSE 8.1 mph 19.6 mph N/A   Overcast
10:15 AM 72.5 °F 67.6 °F 85% 29.81 in 10.0 mi SSE 11.5 mph 19.6 mph N/A   Overcast
10:35 AM 72.5 °F 67.1 °F 83% 29.81 in 10.0 mi SSE 15.0 mph 23.0 mph N/A   Overcast
10:55 AM 72.5 °F 66.7 °F 82% 29.81 in 10.0 mi SSE 12.7 mph 19.6 mph N/A Rain Light Rain
11:15 AM 71.8 °F 67.5 °F 86% 29.81 in 10.0 mi South 10.4 mph 23.0 mph N/A Rain Light Rain
11:35 AM 72.7 °F 68.2 °F 86% 29.79 in 10.0 mi SSE 10.4 mph 19.6 mph N/A   Light Drizzle
11:55 AM 74.7 °F 67.8 °F 79% 29.77 in 10.0 mi SSE 11.5 mph 24.2 mph N/A   Mostly Cloudy
12:15 PM 77.2 °F 67.8 °F 73% 29.75 in 10.0 mi SSE 18.4 mph 26.5 mph N/A   Mostly Cloudy
12:35 PM 77.2 °F 67.3 °F 71% 29.74 in 10.0 mi SSE 13.8 mph 25.3 mph N/A   Mostly Cloudy
12:55 PM 78.4 °F 67.3 °F 68% 29.72 in 10.0 mi SSE 13.8 mph 23.0 mph N/A   Mostly Cloudy
1:15 PM 78.6 °F 66.4 °F 66% 29.71 in 10.0 mi SSE 20.7 mph 29.9 mph N/A   Mostly Cloudy
1:35 PM 78.8 °F 66.6 °F 66% 29.70 in 10.0 mi SSE 15.0 mph 25.3 mph N/A   Scattered Clouds
1:55 PM 79.0 °F 67.3 °F 67% 29.68 in 10.0 mi SSE 18.4 mph 25.3 mph N/A   Mostly Cloudy
2:10 PM 79.2 °F 67.3 °F 67% 29.67 in 10.0 mi SSE 15.0 mph 23.0 mph N/A   Mostly Cloudy
2:35 PM 78.8 °F 66.9 °F 67% 29.66 in 10.0 mi SSE 15.0 mph 27.6 mph N/A Thunderstorm Scattered Clouds
2:55 PM 79.0 °F 66.4 °F 65% 29.66 in 10.0 mi SSE 13.8 mph 23.0 mph N/A   Mostly Cloudy
3:15 PM 78.3 °F 67.1 °F 68% 29.65 in 10.0 mi SSE 13.8 mph 21.9 mph N/A   Mostly Cloudy
3:35 PM 77.7 °F 66.9 °F 69% 29.63 in 10.0 mi SE 5.8 mph - N/A   Overcast
3:55 PM 66.7 °F 66.7 °F 100% 29.67 in 1.0 mi WSW 6.9 mph 26.5 mph 0.42 in Rain , Thunderstorm Heavy Thunderstorms and Rain
4:15 PM 66.6 °F 66.6 °F 100% 29.67 in 10.0 mi SSW 4.6 mph - N/A Rain , Thunderstorm Light Thunderstorms and Rain
4:35 PM 67.1 °F 66.4 °F 98% 29.67 in 10.0 mi South 4.6 mph - 0.01 in Rain , Thunderstorm Light Thunderstorms and Rain
4:55 PM 66.6 °F 65.3 °F 96% 29.68 in 7.0 mi South 9.2 mph - 0.02 in Rain Rain
5:15 PM 65.8 °F 64.8 °F 96% 29.67 in 7.0 mi South 8.1 mph - 0.03 in Rain Rain
5:35 PM 64.9 °F 64.2 °F 98% 29.67 in 10.0 mi South 6.9 mph - 0.07 in Rain Rain
5:55 PM 64.6 °F 64.6 °F 100% 29.66 in 7.0 mi SSE 6.9 mph - 0.11 in Rain Rain
6:15 PM 64.4 °F 64.4 °F 100% 29.68 in 10.0 mi SSE 10.4 mph - 0.02 in Rain Light Rain
6:35 PM 64.4 °F 64.4 °F 100% 29.65 in 7.0 mi SE 9.2 mph - 0.06 in Rain Rain
6:55 PM 65.1 °F 64.0 °F 96% 29.64 in 10.0 mi SSE 10.4 mph 20.7 mph 0.09 in Rain Light Rain
7:15 PM 64.8 °F 64.6 °F 99% 29.62 in 10.0 mi SSE 5.8 mph - 0.01 in Rain Light Rain
7:35 PM 64.4 °F 64.4 °F 100% 29.61 in 10.0 mi SE 8.1 mph - 0.01 in Rain Light Rain
7:55 PM 64.4 °F 64.4 °F 100% 29.65 in 10.0 mi SSE 6.9 mph - 0.02 in Rain Light Rain
8:15 PM 64.8 °F 64.8 °F 100% 29.64 in 10.0 mi SSE 6.9 mph - 0.01 in Rain Rain
8:35 PM 64.4 °F 64.4 °F 100% 29.62 in 10.0 mi SE 4.6 mph - 0.01 in   Overcast
8:55 PM 64.4 °F 64.4 °F 100% 29.62 in 10.0 mi SE 5.8 mph - 0.01 in   Light Drizzle
9:15 PM 64.6 °F 64.6 °F 100% 29.62 in 10.0 mi SSE 8.1 mph - N/A   Overcast
9:35 PM 64.8 °F 64.8 °F 100% 29.62 in 10.0 mi South 5.8 mph - N/A   Overcast
9:55 PM 64.8 °F 64.8 °F 100% 29.62 in 10.0 mi South 5.8 mph - N/A   Drizzle
10:15 PM 64.8 °F 64.8 °F 100% 29.62 in 3.0 mi South 6.9 mph - 0.03 in Rain Rain
10:35 PM 64.6 °F 64.6 °F 100% 29.61 in 2.5 mi SSW 15.0 mph 19.6 mph 0.07 in Rain Rain
10:55 PM 64.4 °F 64.4 °F 100% 29.61 in 10.0 mi South 9.2 mph - 0.07 in   Overcast
11:15 PM 64.2 °F 64.2 °F 100% 29.61 in 10.0 mi South 8.1 mph - N/A   Overcast
11:35 PM 63.9 °F 63.9 °F 100% 29.60 in 10.0 mi South 6.9 mph - N/A   Mostly Cloudy
11:55 PM 63.5 °F 63.5 °F 100% 29.61 in 10.0 mi SSW 5.8 mph - N/A   Mostly Cloudy